Location: Falniów
(50.3639°N, 19.9642°E)
Time: 13:46:18
(UTC+00:00)

Cosmos 2082 Rocket - Pass Details

Date: 19 April 2026
Orbit: 831 x 853 km, 71.0° (Epoch: 19 May)

Event Time Altitude Azimuth Distance (km) Brightness Sun altitude
Exits shadow 01:43:45 21° 259° (W) 1,807 3.4 -16.6°
Maximum altitude 01:46:51 37° 312° (NW) 1,310 3.1 -16.2°
Drops below altitude 10° 01:52:09 10° 19° (NNE) 2,494 5.6 -15.6°
Sets 01:54:49 0° 28° (NNE) 3,433 6.7 -15.3°
